FW8992 Weather Reports


time (UTC)temp
C
wind
direction
speed
KPH
gust
KPH
rain 1hr
cm
rain 24hr
cm
rain mn
cm
humidity
%
barometer
mb
20260906220049 36 78 9.7 22.5 0.00 0.00 0.00 33 1012.4
20260906214601 35 87 9.7 19.3 0.00 0.00 0.00 35 1012.4
20260906213059 36 98 6.4 22.5 0.00 0.00 0.00 33 1012.7
20260906211554 36 5 6.4 20.9 0.00 0.00 0.00 33 1012.8
20260906210111 36 120 6.4 19.3 0.00 0.00 0.00 33 1012.9
20260906204612 36 55 8.0 27.4 0.00 0.00 0.00 34 1013.2
20260906203053 36 44 11.3 24.1 0.00 0.00 0.00 34 1013.3
20260906201555 36 67 9.7 27.4 0.00 0.00 0.00 35 1013.5
20260906200051 35 111 11.3 22.5 0.00 0.00 0.00 36 1013.8
20260906194546 35 112 6.4 20.9 0.00 0.00 0.00 36 1013.9
20260906193053 35 132 12.9 25.7 0.00 0.00 0.00 37 1014.0
20260906191602 35 13 6.4 16.1 0.00 0.00 0.00 39 1014.3
20260906190057 35 30 6.4 19.3 0.00 0.00 0.00 38 1014.4
20260906184554 34 104 4.8 16.1 0.00 0.00 0.00 39 1014.6
20260906183051 34 93 4.8 19.3 0.00 0.00 0.00 38 1014.9
20260906181558 34 71 6.4 20.9 0.00 0.00 0.00 38 1015.1
20260906180106 33 349 3.2 14.5 0.00 0.00 0.00 40 1015.3
20260906174603 34 336 6.4 20.9 0.00 0.00 0.00 40 1015.6
20260906173047 33 134 8.0 22.5 0.00 0.00 0.00 41 1015.8
20260906171546 33 108 11.3 20.9 0.00 0.00 0.00 40 1016.0
20260906170054 34 128 11.3 20.9 0.00 0.00 0.00 40 1016.2
20260906164550 33 13 3.2 20.9 0.00 0.00 0.00 41 1016.2
20260906163053 33 87 4.8 16.1 0.00 0.00 0.00 42 1016.2
20260906161556 33 30 4.8 16.1 0.00 0.00 0.00 42 1016.3
20260906160054 33 59 3.2 12.9 0.00 0.00 0.00 42 1016.2
20260906154552 32 263 1.6 8.0 0.00 0.00 0.00 45 1016.2
20260906153110 31 275 4.8 11.3 0.00 0.00 0.00 49 1016.1
20260906151602 31 274 3.2 12.9 0.00 0.00 0.00 51 1016.0
20260906150049 31 297 3.2 11.3 0.00 0.00 0.00 53 1016.0
20260906144559 30 273 3.2 11.3 0.00 0.00 0.00 56 1015.9
20260906143054 28 259 3.2 16.1 0.00 0.00 0.00 58 1015.9
20260906141554 28 247 4.8 11.3 0.00 0.00 0.00 60 1015.9
20260906140045 27 259 6.4 11.3 0.00 0.00 0.00 63 1015.9
20260906134606 26 203 6.4 14.5 0.00 0.00 0.00 65 1015.7
20260906133056 25 231 4.8 11.3 0.00 0.00 0.00 68 1015.6
20260906131551 24 213 4.8 11.3 0.00 0.00 0.00 69 1015.4
20260906130047 23 182 6.4 11.3 0.00 0.00 0.00 71 1015.1
20260906124557 23 214 6.4 11.3 0.00 0.00 0.00 73 1015.0
20260906123058 23 225 4.8 12.9 0.00 0.00 0.00 73 1014.8
20260906121548 23 221 4.8 9.7 0.00 0.00 0.00 73 1014.7
20260906120050 23 201 6.4 11.3 0.00 0.00 0.00 72 1014.4
20260906114559 23 207 4.8 11.3 0.00 0.00 0.00 72 1014.4
20260906113100 23 198 4.8 9.7 0.00 0.00 0.00 71 1014.3
20260906111550 23 186 6.4 11.3 0.00 0.00 0.00 71 1014.3
20260906110056 23 198 4.8 8.0 0.00 0.00 0.00 70 1014.1
20260906104554 23 169 4.8 11.3 0.00 0.00 0.00 70 1014.1
20260906103102 23 175 4.8 11.3 0.00 0.00 0.00 69 1014.1
20260906101556 24 187 4.8 11.3 0.00 0.00 0.00 69 1014.0
20260906100059 24 180 6.4 12.9 0.00 0.00 0.00 68 1014.0
20260906094550 24 171 6.4 11.3 0.00 0.00 0.00 67 1014.0
20260906093051 24 227 6.4 11.3 0.00 0.00 0.00 67 1013.9
20260906091547 24 183 6.4 11.3 0.00 0.00 0.00 66 1013.8
20260906090111 24 219 6.4 12.9 0.00 0.00 0.00 65 1013.6
20260906084550 24 213 4.8 9.7 0.00 0.00 0.00 64 1013.8
20260906083048 24 192 4.8 9.7 0.00 0.00 0.00 64 1013.6
20260906081552 25 174 6.4 14.5 0.00 0.00 0.00 63 1013.6
20260906080110 25 196 4.8 16.1 0.00 0.00 0.00 63 1013.6
20260906074604 25 163 4.8 14.5 0.00 0.00 0.00 62 1013.8
20260906073103 26 147 6.4 17.7 0.00 0.00 0.00 60 1013.9
20260906071558 26 161 9.7 17.7 0.00 0.00 0.00 60 1014.0
20260906070051 26 136 9.7 17.7 0.00 0.00 0.00 60 1014.0
20260906064556 27 161 9.7 20.9 0.00 0.00 0.00 58 1014.2
20260906063050 27 159 9.7 24.1 0.00 0.00 0.00 58 1014.3
20260906061556 27 171 8.0 14.5 0.00 0.00 0.00 56 1014.5
20260906060052 27 161 6.4 14.5 0.00 0.00 0.00 54 1014.6
20260906054549 27 95 4.8 12.9 0.00 0.00 0.00 52 1014.7
20260906053052 27 136 6.4 12.9 0.00 0.00 0.00 51 1014.4
20260906051558 28 167 4.8 14.5 0.00 0.00 0.00 51 1014.4
20260906050109 28 152 6.4 22.5 0.00 0.00 0.00 50 1014.4
20260906044554 28 117 8.0 16.1 0.00 0.00 0.00 50 1014.5
20260906043057 28 148 4.8 12.9 0.00 0.00 0.00 49 1014.5
20260906041545 28 109 6.4 12.9 0.00 0.00 0.00 49 1014.5
20260906040048 28 121 6.4 14.5 0.00 0.00 0.00 48 1014.3
20260906034610 28 109 6.4 12.9 0.00 0.00 0.00 48 1014.1
20260906033049 28 105 6.4 14.5 0.00 0.00 0.00 47 1014.2
20260906031550 28 98 6.4 12.9 0.00 0.00 0.00 47 1014.0
20260906030057 29 111 6.4 12.9 0.00 0.00 0.00 46 1013.9
20260906024549 29 117 6.4 11.3 0.00 0.00 0.00 46 1013.7
20260906023056 30 117 6.4 11.3 0.00 0.00 0.00 45 1013.5
20260906021553 30 132 8.0 12.9 0.00 0.00 0.00 44 1013.4
20260906020058 30 104 8.0 16.1 0.00 0.00 0.00 43 1013.2
20260906014547 31 116 9.7 17.7 0.00 0.00 0.00 42 1013.2
20260906013104 31 79 11.3 17.7 0.00 0.00 0.00 41 1012.8
20260906011548 32 107 8.0 17.7 0.00 0.00 0.00 40 1012.6
20260906010053 32 121 9.7 19.3 0.00 0.00 0.00 39 1012.4
20260906004547 32 118 9.7 17.7 0.00 0.00 0.00 38 1012.3
20260906003048 33 80 9.7 25.7 0.00 0.00 0.00 37 1012.3
20260906001557 33 118 12.9 24.1 0.00 0.00 0.00 37 1012.2
20260905234558 35 130 11.3 20.9 0.00 0.00 0.00 35 1012.0
20260905233056 35 96 11.3 22.5 0.00 0.00 0.00 35 1012.0
20260905231559 35 113 6.4 20.9 0.00 0.00 0.00 35 1011.7
20260905230059 35 117 8.0 17.7 0.00 0.00 0.00 36 1011.8
20260905224549 34 127 6.4 14.5 0.00 0.00 0.00 37 1011.9
20260905223058 35 126 8.0 20.9 0.00 0.00 0.00 36 1011.9
20260905221556 35 0 4.8 27.4 0.00 0.00 0.00 36 1012.0